Terminal Aerodrome Forecast
Issued by NWS

Home | Current Version | Previous Version | Text Only | Print | Product List | Glossary On
Versions: 1 2 3 4 5 6 7 8 9 10 11 12
321
FTUS44 KSJT 270520
TAFJCT
TAF
KJCT 270520Z 2706/2806 VRB05KT P6SM SCT250
     FM271500 19012G20KT P6SM SCT250
     FM271700 19017G26KT P6SM SCT250
     FM280200 17009KT P6SM SCT250=

USA.gov is the U.S. government's official web portal to all federal, state and local government web resources and services.